NOAA-15
1 25338U 98030A 25259.25578908 .00000130 00000-0 71159-4 0 9999
2 25338 98.5320 281.9964 0011397 72.6354 287.6073 14.27016543422225


Ligne 0
Le nom commun de l'objetNOAA-15
Ligne 1
Numéro de catalogue satellite25338U
Désignateur international98030A
Année de lancement98
Numéro de lancement dans l'année030
Object du lancementA
Époque (année)25
Époque (Jour de l'année en UTC)259.25578908
16/09/2025 07:08:20
1ère dérivée du mouvement moyen .00000130
2ème dérivée du mouvement moyen 00000-0
B * Terme de glissement 71159-4
Type de jeu d'éléments0
Numéro d'élément 999
Ligne 2
Numéro de catalogue satellite25338
Inclinaison de l'orbite (degrés) 98.5320
Ascension droite du nœud ascendant (degrés)281.9964
Excentricité0011397
Argument du Périgée (degrés) 72.6354
Anomalie moyenne (degrés)287.6073
Mouvement moyen (révolutions / jour)14.27016543
Numéro de révolution à l'époque42222
Valeurs déduites
Période Orbitale (en minutes)100.9 min.
Demi-grand axe (en kilomètres)7179.9 Km
Altitude à l‘Apogée (en kilomètres)817 Km
Altitude au Périgée (en kilomètres)800.7 Km

* Sources des TLE's : Celestrack